Lapse_Rate
5.1 5.1 5.1 5.0 4.9 5.1 5.2 5.3 5.3 5.4 5.4 5.5 5.5 5.3 5.2 5.2 5.4 5.7 6.4 6.1 5.7 5.3 5.0 4.9 5.1 5.0 4.5 4.3 5.2 5.2 4.2 4.4 5.2 5.8 7.0 6.7 5.8 5.2 6.2 6.4 6.6 7.0 7.1 6.6 7.0
5.0 5.1 5.3 5.2 5.2 5.2 5.3 5.4 5.3 5.3 5.3 5.3 5.3 5.3 5.3 5.3 5.4 6.0 5.5 5.6 5.7 5.3 5.3 4.9 5.7 5.7 4.1 4.2 4.0 3.9 4.0 4.8 5.8 6.5 6.6 6.5 6.0 5.6 6.4 6.7 6.2 6.6 7.3 7.0 7.0
5.2 5.4 5.5 5.5 5.4 5.5 5.5 5.4 5.4 5.4 5.4 5.4 5.2 5.0 4.9 5.0 5.2 6.1 5.9 5.9 5.6 5.3 5.3 4.8 4.8 4.7 4.3 3.7 3.7 3.6 3.6 4.8 5.7 6.4 6.6 6.6 5.7 5.8 6.1 6.1 6.5 7.0 7.1 7.1 7.1
5.5 5.5 5.4 5.4 5.3 5.4 5.5 5.4 5.3 5.3 5.3 5.3 5.2 5.2 4.9 4.9 4.7 5.8 5.5 5.5 5.6 5.5 5.0 5.1 4.4 3.7 3.7 3.6 4.0 4.2 3.8 4.6 5.2 5.9 6.0 5.9 6.0 5.6 5.6 6.3 6.6 6.3 6.5 6.8 6.7
5.4 5.3 5.3 5.4 5.3 5.4 5.5 5.4 5.3 5.3 5.1 5.1 5.0 4.9 4.7 4.9 5.8 5.1 4.8 5.5 5.6 5.5 5.5 5.6 5.2 4.4 3.8 4.0 4.0 3.8 4.2 4.4 5.6 5.4 5.4 5.2 5.3 5.4 5.4 6.1 6.1 6.3 6.6 6.7 6.6
5.6 5.3 5.1 5.1 5.1 5.1 5.3 5.3 5.3 5.3 5.2 5.1 4.8 4.6 4.7 4.4 4.9 5.6 5.2 4.7 5.3 5.5 5.3 5.3 5.4 5.2 4.9 4.1 3.9 4.2 4.3 4.4 4.5 4.9 5.0 4.6 4.9 5.3 5.5 5.8 5.5 6.3 6.4 6.6 6.6
5.2 5.0 4.9 5.1 5.4 5.6 5.8 5.8 5.8 5.7 5.6 5.4 5.0 4.6 4.2 4.6 4.1 4.5 4.5 4.4 4.8 5.2 5.2 5.2 5.1 4.0 3.9 4.1 4.2 4.3 4.2 4.2 4.0 4.5 4.8 4.7 4.3 4.7 5.3 5.5 5.4 5.8 6.2 6.4 6.5
5.0 5.3 5.4 5.4 5.5 5.6 5.6 5.4 5.4 5.5 5.2 5.2 4.9 4.0 4.0 3.7 3.6 3.7 3.9 3.8 4.2 4.1 4.3 4.9 4.7 3.8 4.1 4.6 4.2 4.6 4.5 4.0 4.2 4.3 4.5 4.9 4.1 4.6 4.9 5.2 5.2 5.5 5.7 5.9 6.2
5.3 5.2 5.2 5.2 5.2 5.3 5.1 5.1 5.0 4.9 4.6 4.3 3.6 3.2 3.5 3.2 3.0 3.1 3.1 3.6 3.9 3.8 4.1 4.6 4.9 4.4 4.5 4.5 4.5 4.0 3.7 3.8 4.1 4.2 4.8 4.5 4.4 5.0 5.3 5.0 4.9 5.1 5.4 5.7 5.9
5.1 5.0 5.0 4.8 4.5 4.2 4.2 4.4 4.5 4.2 4.0 3.8 3.7 4.3 4.4 4.4 4.2 4.4 4.1 4.0 4.0 3.9 4.9 4.7 4.8 5.1 5.0 4.7 3.8 3.9 4.0 4.8 4.3 4.7 4.5 4.7 4.5 5.3 5.3 5.1 4.9 5.1 5.2 5.1 5.9
4.9 4.6 4.3 4.1 4.1 3.9 4.3 4.4 4.8 4.5 4.4 3.9 4.1 4.2 4.5 5.1 4.9 5.2 4.8 5.0 5.5 6.0 5.5 5.5 5.8 5.0 4.4 4.7 4.9 5.5 5.7 5.3 6.0 5.5 5.6 5.0 5.4 5.3 5.5 5.1 5.1 5.4 5.3 5.3 5.2
4.4 4.2 4.1 3.9 3.9 3.9 3.9 4.2 4.4 4.3 4.3 4.5 4.6 4.7 4.6 5.2 5.7 5.5 5.4 5.4 5.8 6.3 6.4 6.8 6.7 6.5 6.0 6.1 5.4 5.5 6.0 6.2 6.4 6.4 5.5 5.3 5.5 5.9 5.7 5.2 5.3 5.5 5.6 5.5 5.1
4.2 3.9 3.7 3.8 3.8 3.8 4.0 4.5 4.7 4.6 5.0 4.8 5.4 5.8 5.9 6.1 6.7 6.3 6.3 6.0 5.9 6.4 7.0 7.2 6.9 6.8 6.5 6.1 6.0 6.0 5.8 6.2 6.5 6.0 5.8 5.9 5.9 5.9 5.9 5.3 4.7 4.9 4.8 5.5 5.6
4.0 3.8 3.8 3.7 3.9 3.8 4.5 5.0 5.3 5.3 5.5 5.8 6.1 6.1 6.4 6.5 7.0 6.8 6.8 6.6 6.8 6.4 7.2 7.3 7.1 6.5 6.3 6.2 6.3 6.3 6.5 6.6 7.0 6.5 6.3 6.2 6.6 6.2 6.1 5.1 5.3 5.2 5.1 5.1 5.4
3.7 4.0 4.0 3.6 3.7 4.5 5.0 5.2 5.5 5.8 7.5 6.7 6.5 6.6 7.0 7.0 7.0 6.7 6.8 6.8 6.8 6.8 6.8 6.6 6.7 7.0 6.7 6.8 6.3 6.8 6.6 6.3 6.7 6.6 7.2 6.4 7.1 7.5 6.7 5.4 5.5 5.2 5.1 5.2 5.4
3.7 4.1 3.9 3.9 4.5 5.1 5.2 5.5 5.9 7.0 7.1 7.1 7.1 7.3 7.8 8.2 7.8 7.0 6.8 7.0 6.7 6.7 6.9 7.1 6.9 7.0 6.9 6.6 6.4 6.7 6.2 6.3 6.4 6.5 6.9 6.7 7.0 7.7 6.7 5.9 5.5 5.9 5.7 5.6 5.7
4.2 4.1 3.8 4.1 5.0 5.2 5.3 5.8 7.5 7.2 7.5 7.0 7.1 8.0 8.7 8.4 8.3 7.6 6.5 6.5 6.3 6.3 6.7 6.8 6.8 6.7 7.1 7.1 7.0 6.7 6.2 6.6 7.2 7.3 7.5 7.4 7.2 7.5 6.8 6.4 6.0 6.2 5.9 5.9 6.1
4.5 4.2 4.1 4.8 5.2 5.2 5.4 6.8 7.0 7.0 7.1 7.5 7.8 8.6 9.3 8.5 8.4 8.5 7.8 6.7 6.3 6.0 6.2 6.4 7.0 6.5 6.5 6.8 6.7 6.9 7.0 7.9 7.8 7.9 8.0 7.1 7.3 6.6 6.5 5.9 6.0 6.0 6.0 5.9 6.0
4.7 4.3 4.6 5.1 5.1 5.4 5.8 6.0 6.1 6.6 7.0 7.1 7.9 8.5 8.7 8.7 8.6 8.8 8.4 7.7 6.2 6.1 5.9 6.2 6.5 6.2 6.2 6.5 6.5 6.7 6.7 6.8 6.7 7.0 8.4 7.6 6.1 5.9 6.2 6.3 6.1 6.0 5.7 5.7 5.9
4.6 4.7 4.5 5.0 5.4 5.4 5.7 5.8 6.5 6.9 7.0 7.3 8.1 8.3 8.5 8.4 8.4 8.6 8.3 7.9 7.5 6.5 6.1 6.1 6.6 6.3 6.3 6.4 6.5 6.4 6.6 6.9 7.0 7.4 7.6 7.7 6.9 6.1 6.2 6.2 6.6 6.2 5.8 5.9 5.9
4.7 4.0 4.4 5.2 5.0 4.8 4.9 6.0 6.3 6.9 6.9 7.0 7.5 7.9 8.2 8.0 8.2 8.2 8.2 8.1 8.1 7.6 6.5 6.1 6.3 6.9 6.3 5.8 5.8 6.2 6.2 6.7 6.9 6.8 7.7 7.5 6.1 5.8 5.9 6.1 6.7 6.4 6.1 6.0 5.9
4.8 4.5 4.7 5.5 5.2 4.7 5.5 6.0 6.4 6.8 6.8 7.1 7.5 7.6 7.7 8.0 8.1 8.1 8.1 8.0 8.0 7.7 7.3 6.7 6.4 6.7 6.6 6.4 5.8 5.6 5.4 5.9 6.2 7.1 6.9 7.2 5.6 5.6 5.8 6.1 6.4 6.4 6.2 6.0 5.9
4.6 4.5 4.6 5.2 4.5 5.2 6.2 6.6 6.4 6.6 6.8 7.0 7.2 7.5 7.7 8.0 8.0 7.9 7.9 7.7 7.9 7.7 7.4 7.6 7.1 7.4 7.6 7.1 6.5 5.7 5.7 5.8 6.3 6.6 6.9 7.6 5.9 5.8 6.2 6.1 6.0 5.9 5.6 5.4 5.5
4.7 4.5 4.7 4.8 4.8 5.4 6.2 6.2 6.6 6.9 6.8 6.9 7.2 7.3 8.0 7.9 7.9 7.7 7.7 7.5 7.6 7.8 8.0 8.0 7.4 7.1 7.2 6.6 6.2 6.2 5.9 6.0 6.5 7.1 7.1 6.7 5.7 5.9 6.1 6.3 5.8 5.3 5.5 5.7 5.9
4.6 4.5 5.2 5.1 5.5 5.3 6.5 6.8 6.4 6.5 6.9 6.7 6.9 6.8 7.3 7.5 8.1 7.6 8.0 8.1 7.6 7.8 7.9 7.8 7.7 7.6 7.2 6.6 6.4 6.1 6.0 6.1 6.2 6.0 6.7 6.6 5.8 5.9 6.0 5.9 5.8 5.6 5.6 5.8 5.8
4.6 4.9 5.5 5.4 5.6 5.3 6.5 6.6 6.5 6.9 6.7 6.6 6.9 7.2 7.2 7.2 7.5 7.8 7.8 7.6 7.3 7.8 7.8 7.6 7.7 7.5 7.8 7.5 6.9 6.5 6.3 6.4 6.2 6.4 6.4 6.2 5.9 5.6 5.9 5.7 5.6 5.7 5.7 5.7 5.8
4.6 5.1 5.5 5.6 5.9 6.1 6.4 6.5 6.5 6.8 6.8 6.5 6.9 7.2 7.5 7.8 7.9 8.0 8.0 7.9 7.8 7.6 7.7 7.7 7.4 7.9 8.2 7.9 7.8 7.4 6.2 6.4 6.3 6.1 6.1 6.3 6.1 6.0 6.0 6.0 6.1 6.0 5.9 6.0 6.1
Wind_Speed
24 25 27 27 28 29 29 29 28 28 26 26 25 25 22 19 18 16 22 20 26 23 8 21 19 19 22 16 22 22 16 18 26 24 27 16 15 15 13 21 9 9 7 7 15
24 24 28 27 29 30 30 30 29 30 28 27 26 25 21 19 17 25 21 27 30 27 17 24 27 23 16 22 15 19 19 27 24 25 19 21 14 17 10 16 16 11 7 8 14
27 25 27 28 31 32 32 31 32 31 30 29 25 23 20 13 14 11 6 27 24 28 25 20 25 25 21 16 19 25 24 25 24 24 23 15 17 16 18 17 19 20 17 14 15
28 29 30 32 35 35 35 35 35 35 33 29 25 22 16 7 8 6 8 11 29 26 23 24 23 28 20 23 23 21 26 29 23 21 20 15 15 20 18 13 16 15 17 17 17
32 33 35 36 37 37 37 38 39 38 34 28 23 17 9 11 14 16 1 7 11 22 28 31 29 28 30 26 26 28 23 24 28 19 18 14 21 20 20 17 5 9 16 18 16
34 35 34 36 36 38 39 41 41 36 30 25 19 13 12 22 8 5 8 8 9 26 27 28 21 31 22 24 29 10 22 26 16 26 19 18 22 21 20 19 12 12 14 15 17
34 36 36 37 37 37 38 40 38 38 32 24 22 14 20 21 8 7 13 10 11 23 25 29 27 22 25 19 27 27 16 21 25 19 22 16 24 26 22 19 19 15 13 13 14
34 36 38 38 37 35 31 34 34 25 24 17 8 11 8 4 19 12 15 15 17 13 21 22 23 20 26 19 5 20 17 14 20 20 9 20 24 26 23 20 21 18 16 14 15
35 35 35 36 35 29 30 35 24 14 31 8 5 7 4 4 11 9 16 15 15 17 12 18 16 24 16 20 16 16 20 20 19 17 23 20 15 25 24 27 23 21 20 17 15
35 35 34 33 33 27 32 30 27 9 24 4 7 5 7 18 18 18 20 10 14 16 18 17 15 13 19 18 22 21 18 21 23 26 24 26 26 17 17 21 25 22 21 19 18
36 36 34 33 31 24 22 12 11 4 15 8 10 7 15 21 12 12 13 15 13 17 18 21 13 20 24 29 18 20 23 24 19 23 25 27 26 23 19 14 20 19 20 21 19
37 36 34 34 32 20 15 13 9 6 8 5 5 8 12 9 11 18 21 12 14 17 19 6 13 28 24 16 19 19 25 24 17 19 23 21 24 23 22 18 17 19 18 16 15
37 36 32 33 31 12 14 18 10 2 4 4 3 6 17 17 8 15 13 12 16 22 21 18 10 16 5 25 22 23 25 23 19 9 15 16 19 21 23 14 7 5 8 7 13
36 35 32 31 11 14 13 19 10 3 4 14 19 11 21 17 3 8 12 4 5 20 23 18 20 14 6 4 15 26 24 25 19 18 17 21 8 21 20 17 13 12 10 10 9
35 32 29 21 10 13 17 19 6 4 3 15 18 14 18 17 9 15 9 3 7 13 5 14 14 14 9 9 11 1 11 19 11 19 13 20 9 13 20 17 13 12 9 6 7
36 28 23 12 11 17 24 12 3 3 6 12 19 20 15 19 14 15 9 9 4 7 6 12 7 6 11 7 7 4 11 6 4 6 7 13 14 13 13 9 8 7 6 5 4
37 23 16 15 13 27 18 6 4 9 14 17 24 21 15 19 15 14 17 19 13 9 7 7 2 3 7 5 2 10 11 4 6 7 4 19 13 5 6 6 6 7 8 5 6
35 14 21 15 25 19 10 2 9 16 17 22 19 17 12 20 16 13 15 15 15 17 10 8 3 8 4 3 3 19 17 8 10 9 12 3 7 6 1 2 4 5 5 5 6
25 4 14 15 25 11 9 11 7 12 15 16 19 16 17 21 15 15 9 15 11 15 11 8 4 3 3 4 4 6 5 4 1 4 9 8 5 5 5 7 8 8 6 6 7
5 4 15 27 25 9 8 14 8 16 16 17 15 13 19 20 15 16 14 15 15 17 13 9 5 11 4 4 1 4 2 5 2 5 6 9 9 4 6 8 8 8 6 6 8
4 3 13 29 6 8 12 15 12 16 16 12 14 15 18 17 16 13 12 7 18 17 11 11 6 7 4 10 14 4 3 5 1 2 2 6 5 5 5 8 9 8 7 7 8
4 5 11 13 12 10 12 18 13 15 17 11 14 14 15 16 9 12 13 12 17 17 11 11 4 4 5 4 4 14 9 6 4 2 0 2 4 5 2 8 10 10 9 9 9
3 3 6 11 9 13 13 16 10 13 16 15 12 12 18 10 7 15 15 11 14 16 14 9 6 4 2 4 10 8 11 10 4 4 4 3 4 4 9 10 9 12 10 10 11
3 5 4 9 11 13 13 15 15 11 8 14 10 11 15 9 13 9 15 12 10 16 17 7 5 7 5 4 7 10 15 13 9 3 4 5 8 7 8 11 11 11 11 10 10
5 4 4 7 11 11 13 13 16 15 7 13 9 17 11 6 12 13 13 11 9 15 11 5 6 6 5 5 8 9 13 13 11 9 6 5 9 9 9 10 9 10 11 11 11
3 3 3 5 9 11 13 12 15 17 7 12 13 17 8 8 8 10 9 9 7 10 10 9 5 6 5 8 8 8 16 13 12 12 8 10 11 11 11 11 11 11 11 11 10
3 1 2 3 8 10 10 12 13 13 5 9 12 13 9 12 15 11 6 8 6 7 9 7 7 7 3 8 5 2 13 10 8 10 9 6 6 12 11 11 11 11 11 11 11
Wind_Direction
346 350 346 341 340 338 334 331 327 323 318 317 315 311 298 294 278 259 249 236 228 234 214 203 203 211 205 193 214 214 230 230 228 225 235 242 188 202 231 242 192 175 273 96 130
343 344 342 338 335 334 332 329 325 321 315 312 308 309 299 299 281 266 249 237 232 218 219 199 202 198 194 207 209 208 221 222 223 230 234 232 205 203 197 212 211 206 127 145 151
342 340 338 333 332 330 327 323 320 318 313 307 303 304 297 299 290 260 31 230 219 209 212 214 204 202 209 205 204 222 233 224 230 236 229 248 199 219 206 207 200 204 183 169 163
345 340 338 335 331 327 324 321 316 313 308 301 297 293 288 227 257 56 23 348 204 207 207 214 215 203 211 210 202 225 224 244 232 241 236 241 224 220 211 212 209 197 175 171 171
344 343 340 334 330 326 322 319 314 311 307 300 291 275 270 223 245 284 305 320 209 200 206 200 209 204 212 214 212 222 230 220 239 253 239 236 244 219 215 225 190 130 147 173 177
345 339 338 335 330 327 324 321 314 313 309 300 284 263 240 243 267 3 338 275 247 201 213 208 211 204 210 228 212 201 225 240 232 233 247 224 236 234 223 216 170 171 174 175 179
343 343 339 334 330 327 325 317 319 315 308 296 270 246 242 239 229 236 315 284 268 205 217 219 219 213 210 214 235 220 208 225 231 229 231 232 241 232 224 216 201 194 187 176 180
346 343 338 334 332 331 328 320 324 331 327 314 283 213 244 239 253 287 286 264 248 249 236 213 227 241 230 223 214 218 235 212 210 217 244 219 241 225 229 222 217 203 215 188 182
346 343 338 337 337 336 331 321 322 318 344 294 265 227 294 148 350 323 313 290 242 230 237 231 214 226 223 217 219 198 223 224 227 214 207 225 236 239 222 224 225 220 215 201 192
346 344 340 339 339 339 332 326 322 296 354 99 59 348 25 335 326 290 294 304 251 228 220 217 209 202 226 215 213 203 216 229 218 212 215 218 224 256 233 216 214 228 217 209 196
347 344 341 339 341 341 337 346 12 27 6 10 338 326 320 323 330 352 335 295 276 249 219 206 203 217 211 213 229 220 213 220 229 210 210 221 229 223 232 222 218 214 223 224 222
347 343 340 338 339 331 347 27 27 295 313 318 302 309 345 341 307 347 351 316 247 244 230 182 228 224 214 211 210 229 243 234 230 215 203 219 232 234 218 212 229 232 222 209 185
345 341 342 338 326 332 337 8 341 311 256 358 303 304 343 327 356 354 347 313 278 246 237 236 233 208 252 215 207 214 229 234 233 212 213 216 239 228 223 183 179 252 182 189 193
345 343 340 340 316 335 345 347 332 223 256 28 14 6 337 340 49 22 9 328 278 246 249 264 268 199 172 226 208 218 228 222 213 189 206 204 235 215 211 180 186 182 177 172 183
347 347 342 340 309 333 332 329 322 188 347 351 353 337 328 15 339 357 347 325 349 324 252 235 256 251 222 211 190 99 180 214 187 202 199 201 231 208 201 193 195 189 169 149 169
348 348 346 346 324 335 324 321 215 256 353 349 349 346 356 5 20 356 358 12 219 325 259 270 322 335 260 256 214 110 150 155 151 197 211 174 198 187 187 190 125 150 160 140 158
345 344 343 349 334 322 316 276 284 26 2 348 338 337 7 7 356 26 19 30 23 332 352 266 55 358 11 224 205 189 165 150 204 200 182 188 202 65 78 51 60 158 154 103 122
341 331 1 359 341 331 314 5 40 359 2 335 329 337 12 15 345 4 26 21 22 360 308 348 68 355 20 327 238 202 207 216 215 209 211 127 200 145 26 67 103 58 121 109 100
332 4 8 350 340 318 18 43 23 356 336 332 323 353 347 353 343 349 42 22 10 7 355 359 14 356 15 340 313 158 200 102 21 319 213 162 104 127 121 114 127 119 110 94 95
334 308 6 348 333 10 37 46 0 360 343 335 356 347 354 353 346 349 11 24 3 358 347 348 299 27 351 305 55 327 66 144 210 198 176 183 171 104 162 150 130 126 118 111 105
318 354 360 338 345 44 40 16 359 346 358 345 353 347 354 346 338 356 13 39 5 348 355 349 346 349 22 25 24 24 33 346 334 343 228 152 100 20 148 151 138 111 104 105 107
330 38 355 334 34 34 26 13 8 6 10 12 6 351 350 347 330 11 13 11 356 350 4 1 330 332 65 65 18 50 23 15 347 136 33 4 93 341 189 134 127 116 104 97 95
14 28 18 21 25 16 9 12 21 13 17 3 360 355 341 351 337 9 15 7 7 11 5 335 4 320 198 184 26 34 18 4 319 255 21 322 97 37 128 125 125 120 112 106 104
346 8 26 32 30 16 359 5 7 16 355 356 10 360 349 354 354 358 358 354 2 7 358 346 18 23 39 13 334 358 12 7 4 358 338 51 126 125 136 133 132 125 118 113 110
5 46 5 1 8 2 6 10 4 6 350 7 349 6 2 333 346 4 357 340 350 2 3 21 11 18 25 7 4 21 23 12 24 8 24 89 106 135 147 144 136 125 123 117 113
28 359 352 9 352 0 13 5 354 348 333 343 349 344 354 348 348 316 337 0 18 338 4 349 4 339 10 2 16 40 22 11 13 2 38 86 88 118 124 126 132 134 131 123 114
16 36 319 341 352 8 6 346 338 355 328 345 345 331 338 346 323 295 271 296 311 322 347 356 342 342 36 343 335 135 13 8 344 26 350 37 94 125 131 137 137 132 130 125 122